Weather History for Jackson, KY

Change the Weather History Date:

Monday, September 2, 2013

  Actual Average Record
Temperature  
Mean Temperature 76 °F 72 °F  
Max Temperature 84 °F 82 °F 94 °F (2011)
Min Temperature 68 °F 63 °F 51 °F (1987)
Degree Days  
Heating Degree Days 0 0  
Month to date heating degree days 0 0  
Since 1 July heating degree days 2 2  
Cooling Degree Days 11 8  
Month to date cooling degree days 22 16  
Year to date cooling degree days 917 994  
Growing Degree Days 26 (Base 50)    
Moisture  
Dew Point 69 °F    
Average Humidity 77    
Maximum Humidity 93    
Minimum Humidity 61    
Precipitation  
Precipitation 0.00 in 0.11 in 0.42 in (2012)
Month to date precipitation 0.02 0.21  
Year to date precipitation 43.24 33.76  
Snow  
Snow 0.00 in 0.00 in - ()
Month to date snowfall 0.0 0.0  
Since 1 July snowfall 0.0 0.0  
Since 1 September snowfall 0.0 0.0  
Snow Depth 0.00 in    
Sea Level Pressure  
Sea Level Pressure 29.89 in    
Wind  
Wind Speed 1 mph (West)    
Max Wind Speed 7 mph    
Max Gust Speed 13 mph    
Visibility 10 miles    
Events Thunderstorm    
T = Trace of Precipitation, MM = Missing Value Source: NWS Daily Summary

Daily Weather History Graph

Daily Weather History Graph

Search for Another Location

Airport:

Trip Planner

Search our weather history database for the weather conditions in past years. The results will help you decide how hot, cold, wet, or windy it might be!

Date:

Astronomy

Sep. 02, 2013 Rise Set
Actual Time 7:04 AM EDT 8:00 PM EDT
Civil Twilight 6:37 AM EDT 8:27 PM EDT
Nautical Twilight 6:06 AM EDT 8:58 PM EDT
Astronomical Twilight 5:33 AM EDT 9:31 PM EDT
Moon 4:22 AM EDT (9/2) 6:11 PM EDT (9/2)
Length of Visible Light 13h 49m
Length of Day
12h 55m
Waning Crescent, 8% of the Moon is Illuminated
Sep 2
Waning Crescent
Sep 5
New
Sep 12
First Quarter
Sep 19
Full
Sep 26
Last Quarter

Hourly Weather History & Observations

Time (EDT) Temp. Heat Index Dew Point Humidity Pressure Visibility Wind Dir Wind Speed Gust Speed Precip Events Conditions
12:53 AM 71.1 °F - 66.9 °F 87% 29.86 in 10.0 mi Calm Calm - N/A   Clear
1:53 AM 70.0 °F - 66.9 °F 90% 29.85 in 10.0 mi Calm Calm - N/A   Clear
2:53 AM 69.1 °F - 66.9 °F 93% 29.85 in 10.0 mi Calm Calm - N/A   Clear
3:53 AM 70.0 °F - 66.9 °F 90% 29.86 in 10.0 mi Calm Calm - N/A   Overcast
4:49 AM 69.8 °F - 66.2 °F 88% 29.90 in 10.0 mi Calm Calm - N/A   Mostly Cloudy
4:53 AM 70.0 °F - 66.9 °F 90% 29.85 in 10.0 mi Variable 3.5 mph - N/A   Mostly Cloudy
5:53 AM 69.1 °F - 66.9 °F 93% 29.85 in 9.0 mi Calm Calm - N/A   Mostly Cloudy
6:20 AM 69.8 °F - 66.2 °F 88% 29.89 in 10.0 mi Calm Calm - N/A   Scattered Clouds
6:53 AM 68.0 °F - 66.0 °F 93% 29.85 in 9.0 mi Variable 3.5 mph - N/A   Clear
7:53 AM 69.1 °F - 66.9 °F 93% 29.88 in 9.0 mi Calm Calm - N/A   Partly Cloudy
8:10 AM 69.8 °F - 66.2 °F 88% 29.92 in 9.0 mi Calm Calm - N/A   Mostly Cloudy
8:51 AM 71.6 °F - 68.0 °F 88% 29.93 in 10.0 mi Calm Calm - N/A   Partly Cloudy
8:53 AM 71.1 °F - 68.0 °F 90% 29.88 in 10.0 mi Calm Calm - N/A   Partly Cloudy
9:21 AM 73.4 °F - 69.8 °F 88% 29.93 in 10.0 mi Calm Calm - N/A   Scattered Clouds
9:39 AM 71.6 °F - 69.8 °F 94% 29.94 in 10.0 mi Calm Calm - N/A   Overcast
9:53 AM 73.0 °F - 69.1 °F 87% 29.91 in 10.0 mi Calm Calm - N/A   Overcast
10:18 AM 73.4 °F - 69.8 °F 88% 29.95 in 10.0 mi Calm Calm - N/A   Overcast
10:25 AM 73.4 °F - 69.8 °F 88% 29.95 in 10.0 mi Calm Calm - N/A   Mostly Cloudy
10:53 AM 77.0 °F - 70.0 °F 79% 29.91 in 10.0 mi Calm Calm - N/A   Overcast
11:15 AM 75.2 °F - 69.8 °F 83% 29.96 in 10.0 mi West 4.6 mph - N/A   Overcast
11:30 AM 78.8 °F - 69.8 °F 74% 29.96 in 10.0 mi Calm Calm - N/A   Overcast
11:39 AM 78.8 °F - 71.6 °F 78% 29.96 in 10.0 mi Calm Calm - N/A   Overcast
11:50 AM 77.0 °F - 69.8 °F 78% 29.96 in 10.0 mi Variable 3.5 mph - N/A   Overcast
11:53 AM 77.0 °F - 70.0 °F 79% 29.92 in 10.0 mi Calm Calm - N/A   Overcast
12:53 PM 81.0 °F 84.9 °F 71.1 °F 72% 29.90 in 10.0 mi Variable 3.5 mph - N/A   Mostly Cloudy
1:45 PM 80.6 °F 84.6 °F 71.6 °F 74% 29.94 in 10.0 mi Calm Calm - N/A   Mostly Cloudy
1:53 PM 82.9 °F 87.5 °F 71.1 °F 67% 29.89 in 10.0 mi Variable 3.5 mph - N/A   Mostly Cloudy
2:53 PM 81.0 °F 84.9 °F 71.1 °F 72% 29.87 in 10.0 mi Calm Calm - N/A   Overcast
3:19 PM 82.4 °F 87.2 °F 71.6 °F 70% 29.91 in 10.0 mi Calm Calm - N/A Thunderstorm Scattered Clouds
3:31 PM 80.6 °F 84.6 °F 71.6 °F 74% 29.90 in 10.0 mi Calm Calm - N/A   Mostly Cloudy
3:45 PM 82.4 °F 87.2 °F 71.6 °F 70% 29.89 in 10.0 mi Calm Calm - N/A   Mostly Cloudy
3:53 PM 82.0 °F 86.3 °F 71.1 °F 69% 29.84 in 10.0 mi Calm Calm - N/A   Mostly Cloudy
4:53 PM 84.0 °F 88.4 °F 70.0 °F 63% 29.83 in 10.0 mi Calm Calm - N/A   Partly Cloudy
5:53 PM 82.0 °F 85.9 °F 70.0 °F 67% 29.83 in 10.0 mi Calm Calm - N/A   Scattered Clouds
6:53 PM 80.1 °F 83.2 °F 70.0 °F 71% 29.82 in 10.0 mi Variable 3.5 mph - N/A   Clear
7:53 PM 77.0 °F - 70.0 °F 79% 29.84 in 10.0 mi Calm Calm - N/A   Clear
8:53 PM 77.0 °F - 70.0 °F 79% 29.85 in 10.0 mi Calm Calm - N/A   Scattered Clouds
9:53 PM 73.9 °F - 69.1 °F 85% 29.84 in 9.0 mi Calm Calm - N/A   Partly Cloudy
10:53 PM 73.0 °F - 69.1 °F 87% 29.87 in 9.0 mi Calm Calm - N/A   Scattered Clouds
11:53 PM 73.0 °F - 69.1 °F 87% 29.87 in 10.0 mi Calm Calm - N/A   Clear